DW7011 Weather Reports


time (UTC)temp
F
wind
direction
speed
knots
gust
knots
rain 1hr
in
rain 24hr
in
rain mn
in
humidity
%
barometer
mb
20260507021333 60 291 2.6 5.2 0.00 0.20 0.20 79 1010.2
20260507020331 60 359 2.6 5.2 0.00 0.20 0.20 79 1010.2
20260507015325 61 301 3.5 7.0 0.00 0.20 0.20 77 1010.4
20260507013337 61 313 2.6 7.8 0.00 0.20 0.20 79 1010.6
20260507012349 61 285 1.7 6.1 0.00 0.20 0.20 81 1010.6
20260507011335 62 312 3.5 7.0 0.00 0.20 0.20 81 1010.3
20260507010331 62 321 1.7 7.0 0.01 0.20 0.20 81 1010.3
20260507005325 63 290 1.7 7.8 0.01 0.20 0.20 82 1009.9
20260507004343 64 40 3.5 8.7 0.01 0.20 0.20 82 1009.9
20260507002327 65 252 2.6 5.2 0.01 0.20 0.20 86 1009.6
20260507001325 65 277 1.7 5.2 0.01 0.20 0.20 84 1009.1
20260507000343 66 222 1.7 3.5 0.00 0.19 0.19 81 1008.7
20260506235337 67 270 2.6 5.2 0.00 0.19 0.19 80 1008.6
20260506234327 67 288 3.5 7.0 0.00 0.19 0.19 80 1008.6
20260506233341 67 243 1.7 3.5 0.00 0.19 0.19 80 1008.5
20260506232339 67 242 1.7 4.3 0.00 0.19 0.19 79 1008.5
20260506231338 67 245 1.7 7.0 0.00 0.19 0.19 79 1008.4
20260506230325 67 269 1.7 3.5 0.00 0.19 0.19 79 1008.4
20260506225322 68 250 0.9 3.5 0.00 0.19 0.19 79 1008.3
20260506224340 68 276 1.7 3.5 0.00 0.19 0.19 78 1008.3
20260506223331 68 272 2.6 5.2 0.00 0.19 0.19 77 1008.2
20260506222348 68 243 2.6 5.2 0.00 0.19 0.19 79 1008.3
20260506221339 68 269 0.9 1.7 0.00 0.19 0.19 80 1008.4
20260506220334 68 224 0.0 1.7 0.00 0.19 0.19 80 1008.0
20260506215330 68 147 0.9 2.6 0.00 0.19 0.19 79 1007.9
20260506213341 69 284 0.0 2.6 0.00 0.19 0.19 78 1008.0
20260506212326 69 117 0.9 3.5 0.00 0.19 0.19 78 1007.8
20260506210343 68 276 2.6 5.2 0.00 0.19 0.19 79 1007.7
20260506203347 67 281 3.5 8.7 0.00 0.19 0.19 80 1007.7
20260506202333 67 264 3.5 7.8 0.00 0.19 0.19 79 1007.7
20260506201331 67 274 1.7 6.1 0.00 0.19 0.19 79 1007.7
20260506195340 68 259 2.6 7.8 0.00 0.19 0.19 77 1007.6
20260506194337 67 276 2.6 7.0 0.00 0.19 0.19 78 1007.7
20260506193325 67 217 3.5 7.8 0.00 0.19 0.19 78 1007.8
20260506191335 67 269 3.5 6.1 0.00 0.19 0.19 79 1007.8
20260506190330 67 221 4.3 10.4 0.00 0.19 0.19 80 1007.9
20260506185327 66 257 2.6 7.8 0.00 0.19 0.19 81 1008.0
20260506184345 65 240 1.7 8.7 0.00 0.19 0.19 83 1008.0
20260506182330 64 250 3.5 7.8 0.00 0.19 0.19 85 1008.3
20260506181349 64 281 1.7 5.2 0.00 0.19 0.19 86 1008.5
20260506180333 63 308 1.7 4.3 0.01 0.19 0.19 88 1008.6
20260506175330 62 282 1.7 5.2 0.01 0.19 0.19 88 1008.7
20260506174327 62 255 2.6 6.1 0.01 0.19 0.19 88 1008.8
20260506173344 62 228 2.6 7.0 0.01 0.19 0.19 88 1008.7
20260506172326 62 257 2.6 8.7 0.01 0.19 0.19 88 1008.7
20260506171343 62 264 4.3 10.4 0.01 0.19 0.19 88 1008.6
20260506170339 62 248 1.7 8.7 0.00 0.18 0.18 89 1008.5
20260506165335 61 231 2.6 7.0 0.00 0.18 0.18 89 1008.6
20260506164353 61 244 1.7 5.2 0.00 0.18 0.18 89 1008.5
20260506163322 61 193 2.6 7.8 0.01 0.18 0.18 89 1008.8
20260506162339 61 245 2.6 6.1 0.02 0.18 0.18 89 1008.8
20260506161336 61 252 1.7 7.0 0.03 0.18 0.18 90 1008.9
20260506160333 62 223 2.6 9.6 0.04 0.18 0.18 90 1008.8
20260506155349 62 27 0.9 9.6 0.05 0.18 0.18 91 1008.6
20260506153337 61 191 1.7 10.4 0.08 0.17 0.17 90 1008.6
20260506152323 61 135 1.7 5.2 0.08 0.16 0.16 90 1009.2
20260506151342 61 245 1.7 4.3 0.06 0.14 0.14 90 1009.5
20260506145332 61 236 0.9 4.3 0.07 0.12 0.12 89 1009.7
20260506144327 61 264 1.7 5.2 0.06 0.10 0.10 88 1009.7
20260506142338 62 18 1.7 7.8 0.07 0.08 0.08 88 1009.3
20260506141327 61 239 1.7 3.5 0.07 0.08 0.08 88 1009.2
20260506140341 61 53 1.7 5.2 0.06 0.07 0.07 87 1009.3
20260506134332 62 346 0.0 3.5 0.04 0.04 0.04 85 1009.3
20260506132342 63 260 0.9 5.2 0.01 0.01 0.01 83 1009.2
20260506130328 63 206 1.7 5.2 0.01 0.01 0.01 80 1009.4
20260506124338 64 233 1.7 5.2 0.00 0.00 0.00 78 1009.5
20260506122330 64 274 1.7 5.2 0.00 0.00 0.00 79 1009.8
20260506121343 64 249 1.7 6.1 0.00 0.00 0.00 78 1009.8
20260506115348 64 237 1.7 3.5 0.00 0.00 0.00 78 1009.5
20260506114338 64 276 0.9 7.0 0.00 0.00 0.00 77 1009.1
20260506113334 64 244 1.7 5.2 0.00 0.00 0.00 77 1009.2
20260506111330 64 254 1.7 4.3 0.00 0.00 0.00 76 1009.0
20260506110347 65 255 1.7 6.1 0.00 0.00 0.00 75 1008.9
20260506105335 65 135 1.7 4.3 0.00 0.00 0.00 75 1008.7
20260506104332 65 274 1.7 6.1 0.00 0.00 0.00 75 1008.7
20260506103342 65 258 1.7 6.1 0.00 0.00 0.00 75 1008.7
20260506102338 65 136 2.6 7.0 0.00 0.00 0.00 75 1008.6
20260506101326 65 226 0.9 6.1 0.00 0.00 0.00 74 1008.5
20260506100342 65 270 1.7 4.3 0.00 0.00 0.00 74 1008.4
20260506095340 65 83 1.7 6.1 0.00 0.00 0.00 74 1008.4
20260506094338 65 291 1.7 5.2 0.00 0.00 0.00 74 1008.4
20260506093350 65 245 1.7 3.5 0.00 0.00 0.00 73 1008.4
20260506092337 65 109 0.9 4.3 0.00 0.00 0.00 72 1008.5
20260506091334 65 6 0.9 3.5 0.00 0.00 0.00 72 1008.6
20260506090330 64 281 1.7 8.7 0.00 0.00 0.00 72 1008.6
20260506085351 64 352 0.9 1.7 0.00 0.00 0.00 72 1008.6
20260506084335 64 19 0.0 1.7 0.00 0.00 0.00 72 1008.7
20260506082328 65 197 0.0 1.7 0.00 0.00 0.00 70 1008.7
20260506080323 66 119 0.9 2.6 0.00 0.00 0.00 67 1008.7
20260506073324 67 276 0.9 3.5 0.00 0.00 0.00 64 1008.8
20260506072342 67 229 0.0 3.5 0.00 0.00 0.00 64 1008.8
20260506070331 67 224 0.9 2.6 0.00 0.00 0.00 63 1008.9
20260506062327 67 27 0.9 1.7 0.00 0.00 0.00 61 1009.4
20260506060338 67 330 0.0 2.6 0.00 0.00 0.00 61 1009.6
20260506051326 68 266 0.9 6.1 0.00 0.00 0.00 57 1009.9
20260506050322 68 176 0.9 7.0 0.00 0.00 0.00 57 1009.8
20260506044336 68 263 0.9 3.5 0.00 0.00 0.00 57 1009.8
20260506043323 68 104 0.9 4.3 0.00 0.00 0.00 56 1009.8
20260506042340 68 4 0.9 3.5 0.00 0.00 0.00 55 1010.0
20260506041333 68 288 0.9 3.5 0.00 0.00 0.00 55 1009.9
20260506040326 68 229 1.7 5.2 0.00 0.00 0.00 55 1010.0
20260506035342 68 123 0.9 4.3 0.00 0.00 0.00 56 1009.9
20260506032347 68 268 0.9 3.5 0.00 0.00 0.00 55 1009.8
20260506031349 68 125 0.0 3.5 0.00 0.00 0.00 55 1009.9
20260506030335 68 134 0.9 2.6 0.00 0.00 0.00 56 1009.8
20260506025327 68 15 0.0 1.7 0.00 0.00 0.00 55 1009.8
20260506024340 68 77 0.0 3.5 0.00 0.00 0.00 54 1009.9
20260506023333 68 38 0.9 4.3 0.00 0.00 0.00 53 1009.9
20260506022350 68 223 0.0 1.7 0.00 0.00 0.00 52 1009.8